Pine Ridge, SD

4:13 PM MST on December 07, 2016 (GMT -0700)
Pine Ridge

Weather History for KIEN - December, 2012

Change the Weather History Date:

Thursday, December 6, 2012

  Actual Average Record
Temperature  
Mean Temperature 41 °F 24 °F  
Max Temperature 49 °F 37 °F 57 °F (2003)
Min Temperature 32 °F 11 °F -28 °F (2013)
Degree Days  
Heating Degree Days 24 41  
Month to date heating degree days 131 239  
Since 1 July heating degree days 1719 1929  
Cooling Degree Days 0 0  
Month to date cooling degree days 0 0  
Year to date cooling degree days 1103 717  
Moisture  
Dew Point 18 °F    
Average Humidity 42    
Maximum Humidity 52    
Minimum Humidity 32    
Precipitation  
Precipitation T in 0.01 in 0.05 in (2007)
Month to date precipitation T 0.06  
Year to date precipitation 11.03 17.23  
Sea Level Pressure  
Sea Level Pressure 30.00 in    
Wind  
Wind Speed 8 mph (ENE)    
Max Wind Speed 29 mph    
Max Gust Speed 39 mph    
Visibility 10 miles    
Events      
T = Trace of Precipitation, MM = Missing Value Source: NWS Daily Summary

Daily Weather History Graph

Daily Weather History Graph

Search for Another Location

Airport or City:

Trip Planner

Search our weather history database for the weather conditions in past years. The results will help you decide how hot, cold, wet, or windy it might be!

Date:

Astronomy

Dec. 06, 2012 Rise Set
Actual Time 7:07 AM MST 4:15 PM MST
Civil Twilight 6:35 AM MST 4:47 PM MST
Nautical Twilight 5:59 AM MST 5:22 PM MST
Astronomical Twilight 5:25 AM MST 5:57 PM MST
Moon No Moon Rise 11:52 AM MST (12/6)
Length of Visible Light 10h 12m
Length of Day
9h 07m
Waning Gibbous, 48% of the Moon is Illuminated
Dec 6
Waning Gibbous
Dec 13
New
Dec 19
First Quarter
Dec 28
Full
Jan 4
Last Quarter

Hourly Weather History & Observations

Time (MST) Temp. Windchill Dew Point Humidity Pressure Visibility Wind Dir Wind Speed Gust Speed Precip Events Conditions
12:52 AM 46.0 °F 37.6 °F 30.9 °F 56% 29.87 in 10.0 mi North 24.2 mph 34.5 mph 0.00 in   Overcast
1:52 AM 44.1 °F 39.0 °F 24.1 °F 45% 29.93 in 10.0 mi North 9.2 mph - N/A   Overcast
2:52 AM 42.1 °F 34.5 °F 23.0 °F 47% 29.96 in 10.0 mi NNE 15.0 mph 25.3 mph N/A   Overcast
3:52 AM 39.0 °F 28.8 °F 21.9 °F 50% 30.01 in 10.0 mi NNE 21.9 mph 28.8 mph 0.00 in   Overcast
4:52 AM 39.0 °F 31.8 °F 17.1 °F 41% 30.04 in 10.0 mi North 11.5 mph - N/A   Overcast
5:52 AM 37.9 °F 30.9 °F 18.0 °F 45% 30.03 in 10.0 mi NNE 10.4 mph 20.7 mph 0.00 in   Overcast
6:52 AM 37.9 °F 30.9 °F 15.1 °F 39% 30.05 in 10.0 mi North 10.4 mph - N/A   Overcast
7:52 AM 37.0 °F 28.1 °F 17.1 °F 44% 30.07 in 10.0 mi North 15.0 mph 24.2 mph N/A   Overcast
8:52 AM 35.1 °F 27.9 °F 19.9 °F 54% 30.09 in 10.0 mi North 9.2 mph - N/A   Overcast
9:52 AM 37.0 °F 34.5 °F 19.0 °F 48% 30.11 in 10.0 mi ENE 3.5 mph - N/A   Overcast
10:52 AM 37.0 °F - 19.0 °F 48% 30.08 in 10.0 mi Calm Calm - N/A   Overcast
11:52 AM 37.9 °F 35.5 °F 18.0 °F 45% 30.05 in 10.0 mi NW 3.5 mph - N/A   Overcast
12:52 PM 39.0 °F - 17.1 °F 41% 30.04 in 10.0 mi Calm Calm - N/A   Overcast
1:52 PM 39.9 °F 37.8 °F 16.0 °F 38% 30.01 in 10.0 mi Variable 3.5 mph - N/A   Overcast
2:52 PM 39.9 °F 37.8 °F 15.1 °F 36% 30.01 in 10.0 mi ESE 3.5 mph - N/A   Overcast
3:52 PM 39.0 °F 36.8 °F 15.1 °F 38% 30.01 in 10.0 mi ESE 3.5 mph - N/A   Overcast
4:52 PM 37.9 °F 35.5 °F 14.0 °F 38% 30.01 in 10.0 mi East 3.5 mph - N/A   Overcast
5:52 PM 36.0 °F 31.1 °F 19.0 °F 50% 30.00 in 10.0 mi ESE 5.8 mph - N/A   Overcast
6:52 PM 36.0 °F 33.3 °F 16.0 °F 44% 29.99 in 10.0 mi East 3.5 mph - N/A   Overcast
7:52 PM 34.0 °F 29.8 °F 18.0 °F 52% 29.98 in 10.0 mi ENE 4.6 mph - N/A   Mostly Cloudy
8:52 PM 36.0 °F 28.5 °F 15.1 °F 43% 29.96 in 10.0 mi SSE 10.4 mph - N/A   Scattered Clouds
9:52 PM 37.0 °F 30.4 °F 10.9 °F 34% 29.95 in 10.0 mi SE 9.2 mph - N/A   Overcast
10:52 PM 36.0 °F 28.5 °F 12.0 °F 37% 29.91 in 10.0 mi SE 10.4 mph - N/A   Overcast
11:52 PM 36.0 °F 29.0 °F 19.0 °F 50% 29.90 in 10.0 mi SSE 9.2 mph - N/A   Overcast